Flag for Cambodia Weather past 2 weeks in Phnom Penh, Cambodia

Now
82 °F

Passing clouds.


Feels Like: 92 °F
Forecast: 75 / 91 °F
Wind: 2 mph from North

Location: Phnom-Penh / Pochentong

Current Time: Oct 24, 2014 at 10:20:49 PM

Latest Report: Oct 24, 2014 at 9:30 PM


Visibility: 5 mi

Pressure: 29.83 "Hg

Humidity: 89%

Dew point: 79 °F

Location of Phnom PenhLocation

Historic Weather in Phnom Penh — Graph

°F

Phnom Penh temperature yesterday

Maximum temperature yesterday: 86 °F (at 12:00 PM)
Minimum temperature yesterday: 77 °F (at 12:00 AM)
Average temperature yesterday: 81 °F

Past Weeks' High & Low Weather Summary

 TemperatureHumidityPressure
High140 °F (Oct 19, 2:00 PM)100% (Oct 13, 6:30 AM)29.95 "Hg (Oct 13, 6:30 AM)
Low73 °F (Oct 13, 6:30 AM)52% (Oct 14, 12:30 PM)29.65 "Hg (Oct 10, 3:30 PM)
Average85 °F75%29.81 "Hg
* Reported Oct 9 9:00 PM — Oct 24 9:00 PM, Phnom Penh, Weather by CustomWeather, © 2014

Note: Actual official high and low records may vary slightly from our data, if they occured in-between our weather recording intervals... More about our weather records

Advertising

Phnom Penh weather history for previous 24 hours

 ConditionsComfort  
Time TempWeatherWind HumidityBarometerVisibility
9:00 PM
Oct 24
84 °FPassing clouds.1 mph84%29.83 "Hg5 mi
8:30 PM82 °FPassing clouds.1 mph89%29.83 "Hg5 mi
8:00 PM84 °FPassing clouds.1 mph79%29.80 "Hg5 mi
7:30 PM84 °FPassing clouds.1 mph84%29.80 "Hg6 mi
7:00 PM84 °FPassing clouds.2 mph79%29.77 "Hg6 mi
6:30 PM84 °FPartly cloudy.2 mph84%29.77 "Hg6 mi
6:00 PM84 °FPartly cloudy.1 mph79%29.74 "Hg6 mi
5:30 PM86 °FBroken clouds.1 mph70%29.74 "Hg6 mi
5:00 PM86 °FScattered clouds.3 mph70%29.74 "HgN/A
4:30 PM90 °FScattered clouds.6 mph63%29.71 "HgN/A
4:00 PM88 °FBroken clouds.5 mph66%29.71 "HgN/A
3:30 PM90 °FBroken clouds.5 mph63%29.71 "HgN/A
3:00 PM90 °FBroken clouds.3 mph71%29.71 "HgN/A
2:30 PM86 °FBroken clouds.5 mph75%29.74 "HgN/A
2:00 PM84 °FBroken clouds.7 mph84%29.74 "HgN/A
1:30 PM86 °FPartly sunny.6 mph75%29.77 "HgN/A
1:00 PM86 °FBroken clouds.5 mph70%29.80 "HgN/A
12:30 PM86 °FPartly sunny.3 mph70%29.80 "HgN/A
12:00 PM88 °FPartly sunny.1 mph70%29.80 "HgN/A
11:30 AM84 °FPartly sunny.3 mph79%29.83 "HgN/A
11:00 AM84 °FPartly sunny.3 mph79%29.83 "HgN/A
10:30 AM84 °FPartly sunny.6 mph74%29.83 "HgN/A
9:30 AM84 °FPartly sunny.5 mph74%29.86 "HgN/A
9:00 AM81 °FPartly sunny.7 mph84%29.86 "HgN/A
8:30 AM81 °FScattered clouds.8 mph84%29.83 "HgN/A
8:00 AM81 °FScattered clouds.7 mph84%29.83 "HgN/A
7:30 AM79 °FScattered clouds.5 mph89%29.83 "HgN/A
7:00 AM79 °FScattered clouds.6 mph89%29.80 "Hg6 mi
6:30 AM79 °FScattered clouds.2 mph94%29.80 "Hg6 mi
6:00 AM79 °FScattered clouds.2 mph94%29.80 "Hg6 mi
1:00 AM79 °FPassing clouds.2 mph89%29.83 "HgN/A
12:30 AM79 °FPassing clouds.2 mph89%29.83 "HgN/A
12:00 AM79 °FPassing clouds.3 mph89%29.86 "HgN/A
11:30 PM
Oct 23
79 °FPassing clouds.5 mph89%29.86 "HgN/A
11:00 PM79 °FPassing clouds.3 mph89%29.86 "HgN/A
10:30 PM81 °FPassing clouds.5 mph89%29.86 "HgN/A
10:00 PM81 °FPassing clouds.3 mph94%29.86 "HgN/A
Weather by CustomWeather, © 2014

See weather overviewHow to use our weather pages